Météo par heure à Abaliget

Ce jour, 27 Novembre, Vendredi

Heure Température Précipitation Vent Pression Humidité
00:00 0°C° 0 mm 0 m/s 751 mmHg 94%
01:00 0°C° 0 mm 0 m/s 751 mmHg 94%
02:00 0°C° 0 mm 0 m/s 751 mmHg 94%
03:00 +1°C° 0 mm 1 m/s 751 mmHg 95%
04:00 +1°C° 0 mm 1 m/s 751 mmHg 95%
05:00 0°C° 0 mm 1 m/s 751 mmHg 95%
06:00 -1°C° 0 mm 0 m/s 751 mmHg 95%
07:00 -1°C° 0 mm 0 m/s 751 mmHg 95%
08:00 0°C° 0 mm 0 m/s 751 mmHg 90%
09:00 +3°C° 0 mm 1 m/s 751 mmHg 85%
10:00 +4°C° 0 mm 1 m/s 751 mmHg 80%
11:00 +5°C° 0 mm 1 m/s 751 mmHg 76%
12:00 +4°C° 0 mm 0 m/s 751 mmHg 73%
13:00 +5°C° 0 mm 0 m/s 751 mmHg 69%
14:00 +5°C° 0 mm 0 m/s 750 mmHg 73%
15:00 +4°C° 0 mm 0 m/s 750 mmHg 77%
16:00 +3°C° 0 mm 0 m/s 750 mmHg 81%
17:00 +3°C° 0 mm 0 m/s 750 mmHg 83%
18:00 +2°C° 0 mm 0 m/s 750 mmHg 85%
19:00 +2°C° 0 mm 0 m/s 750 mmHg 88%
20:00 +1°C° 0 mm 0 m/s 750 mmHg 88%
21:00 +1°C° 0 mm 0 m/s 750 mmHg 89%
22:00 +1°C° 0 mm 0 m/s 750 mmHg 90%
23:00 +1°C° 0 mm 0 m/s 750 mmHg 90%

Demain, 28 Novembre, Samedi

Heure Température Précipitation Vent Pression Humidité
00:00 0°C° 0 mm 0 m/s 750 mmHg 91%
01:00 0°C° 0 mm 0 m/s 750 mmHg 91%
02:00 0°C° 0 mm 0 m/s 749 mmHg 91%
03:00 0°C° 0 mm 0 m/s 749 mmHg 92%
04:00 0°C° 0 mm 0 m/s 749 mmHg 92%
05:00 0°C° 0 mm 0 m/s 749 mmHg 92%
06:00 0°C° 0 mm 0 m/s 749 mmHg 92%
07:00 0°C° 0 mm 0 m/s 748 mmHg 93%
08:00 +1°C° 0 mm 0 m/s 748 mmHg 87%
09:00 +2°C° 0 mm 0 m/s 748 mmHg 82%
10:00 +3°C° 0 mm 0 m/s 748 mmHg 77%
11:00 +5°C° 0 mm 1 m/s 748 mmHg 73%
12:00 +6°C° 0 mm 1 m/s 748 mmHg 70%
13:00 +7°C° 0 mm 1 m/s 748 mmHg 66%
14:00 +6°C° 0 mm 1 m/s 748 mmHg 69%
15:00 +5°C° 0 mm 1 m/s 747 mmHg 72%
16:00 +4°C° 0 mm 1 m/s 747 mmHg 75%
17:00 +4°C° 0 mm 1 m/s 748 mmHg 77%
18:00 +3°C° 0 mm 1 m/s 748 mmHg 79%
19:00 +3°C° 0 mm 1 m/s 748 mmHg 81%
20:00 +2°C° 0 mm 1 m/s 748 mmHg 82%
21:00 +2°C° 0 mm 1 m/s 748 mmHg 84%
22:00 +2°C° 0 mm 1 m/s 749 mmHg 85%
23:00 +1°C° 0 mm 1 m/s 749 mmHg 86%

Après-demain, 29 Novembre, Dimanche

Heure Température Précipitation Vent Pression Humidité
00:00 +1°C° 0 mm 1 m/s 749 mmHg 88%
01:00 +1°C° 0 mm 1 m/s 749 mmHg 90%
02:00 0°C° 0 mm 1 m/s 749 mmHg 90%
03:00 0°C° 0 mm 1 m/s 749 mmHg 91%
04:00 0°C° 0 mm 1 m/s 748 mmHg 92%
05:00 0°C° 0 mm 1 m/s 748 mmHg 92%
06:00 0°C° 0 mm 1 m/s 748 mmHg 92%
07:00 -1°C° 0 mm 1 m/s 748 mmHg 93%
08:00 +1°C° 0 mm 1 m/s 749 mmHg 87%
09:00 +2°C° 0 mm 1 m/s 749 mmHg 82%
10:00 +3°C° 0 mm 1 m/s 749 mmHg 76%
11:00 +3°C° 0 mm 1 m/s 749 mmHg 74%
12:00 +4°C° 0 mm 1 m/s 748 mmHg 71%
13:00 +4°C° 0 mm 1 m/s 748 mmHg 69%
14:00 +3°C° 0 mm 1 m/s 748 mmHg 70%
15:00 +3°C° 0 mm 1 m/s 748 mmHg 72%
16:00 +3°C° 0 mm 1 m/s 748 mmHg 73%
17:00 +2°C° 0 mm 1 m/s 748 mmHg 75%
18:00 +2°C° 0 mm 1 m/s 748 mmHg 78%
19:00 0°C° 0 mm 0 m/s 749 mmHg 80%
20:00 +1°C° 0 mm 1 m/s 749 mmHg 81%
21:00 0°C° 0 mm 1 m/s 749 mmHg 82%
22:00 0°C° 0 mm 1 m/s 749 mmHg 83%
23:00 0°C° 0 mm 1 m/s 750 mmHg 84%

30 Novembre, Lundi

Heure Température Précipitation Vent Pression Humidité
00:00 0°C° 0 mm 1 m/s 750 mmHg 84%
01:00 0°C° 0 mm 1 m/s 750 mmHg 85%
02:00 -1°C° 0 mm 1 m/s 750 mmHg 86%
03:00 -1°C° 0 mm 1 m/s 750 mmHg 87%
04:00 -1°C° 0 mm 1 m/s 751 mmHg 88%
05:00 -1°C° 0 mm 1 m/s 751 mmHg 89%
06:00 -1°C° 0 mm 1 m/s 752 mmHg 90%
07:00 -1°C° 0 mm 1 m/s 752 mmHg 91%
08:00 -2°C° 0 mm 2 m/s 752 mmHg 85%
09:00 -1°C° 0 mm 2 m/s 753 mmHg 80%
10:00 +1°C° 0 mm 2 m/s 753 mmHg 74%
11:00 +2°C° 0 mm 2 m/s 753 mmHg 70%
12:00 +2°C° 0 mm 2 m/s 753 mmHg 66%
13:00 +3°C° 0 mm 2 m/s 754 mmHg 61%
14:00 +2°C° 0 mm 2 m/s 754 mmHg 66%
15:00 +1°C° 0 mm 2 m/s 754 mmHg 70%
16:00 +1°C° 0 mm 1 m/s 754 mmHg 75%
17:00 +1°C° 0 mm 1 m/s 754 mmHg 77%
18:00 0°C° 0 mm 1 m/s 754 mmHg 80%
19:00 0°C° 0 mm 1 m/s 755 mmHg 82%
20:00 0°C° 0 mm 1 m/s 755 mmHg 83%
21:00 -1°C° 0 mm 1 m/s 755 mmHg 84%
22:00 -1°C° 0 mm 1 m/s 755 mmHg 84%
23:00 -1°C° 0 mm 1 m/s 755 mmHg 84%

1 Décembre, Mardi

Heure Température Précipitation Vent Pression Humidité
00:00 -1°C° 0 mm 1 m/s 755 mmHg 84%
01:00 -1°C° 0 mm 1 m/s 755 mmHg 84%
02:00 -1°C° 0 mm 1 m/s 755 mmHg 84%
03:00 -1°C° 0 mm 1 m/s 755 mmHg 84%
04:00 -3°C° 0 mm 0 m/s 755 mmHg 84%
05:00 -3°C° 0 mm 0 m/s 756 mmHg 85%
06:00 -3°C° 0 mm 0 m/s 756 mmHg 85%
07:00 -3°C° 0 mm 0 m/s 756 mmHg 85%
08:00 -2°C° 0 mm 0 m/s 756 mmHg 78%
09:00 0°C° 0 mm 0 m/s 756 mmHg 71%
10:00 +2°C° 0 mm 1 m/s 756 mmHg 64%
11:00 +3°C° 0 mm 1 m/s 756 mmHg 60%
12:00 +3°C° 0 mm 1 m/s 755 mmHg 56%
13:00 +4°C° 0 mm 1 m/s 755 mmHg 52%
14:00 +3°C° 0 mm 1 m/s 755 mmHg 57%
15:00 +2°C° 0 mm 1 m/s 754 mmHg 63%
16:00 0°C° 0 mm 1 m/s 754 mmHg 68%
17:00 -1°C° 0 mm 0 m/s 754 mmHg 70%
18:00 -1°C° 0 mm 0 m/s 754 mmHg 71%
19:00 -2°C° 0 mm 0 m/s 754 mmHg 73%
20:00 -2°C° 0 mm 0 m/s 754 mmHg 74%
21:00 -2°C° 0 mm 0 m/s 754 mmHg 75%
22:00 -2°C° 0 mm 0 m/s 754 mmHg 76%
23:00 -2°C° 0 mm 0 m/s 754 mmHg 76%

2 Décembre, Mercredi

Heure Température Précipitation Vent Pression Humidité
00:00 -3°C° 0 mm 0 m/s 754 mmHg 77%
01:00 -3°C° 0 mm 0 m/s 754 mmHg 78%
02:00 -3°C° 0 mm 0 m/s 753 mmHg 78%
03:00 -3°C° 0 mm 0 m/s 753 mmHg 79%
04:00 -3°C° 0 mm 0 m/s 753 mmHg 79%
05:00 -3°C° 0 mm 0 m/s 753 mmHg 80%
06:00 -3°C° 0 mm 0 m/s 753 mmHg 80%
07:00 -3°C° 0 mm 0 m/s 752 mmHg 80%
08:00 -2°C° 0 mm 0 m/s 752 mmHg 74%
09:00 -1°C° 0 mm 0 m/s 752 mmHg 68%
10:00 0°C° 0 mm 0 m/s 752 mmHg 62%
11:00 +1°C° 0 mm 0 m/s 752 mmHg 59%
12:00 +2°C° 0 mm 0 m/s 751 mmHg 55%
13:00 +2°C° 0 mm 0 m/s 751 mmHg 52%
14:00 +1°C° 0 mm 0 m/s 750 mmHg 57%
15:00 0°C° 0 mm 0 m/s 750 mmHg 61%
16:00 0°C° 0 mm 1 m/s 750 mmHg 65%
17:00 0°C° 0 mm 1 m/s 750 mmHg 67%
18:00 -1°C° 0 mm 1 m/s 749 mmHg 69%
19:00 -1°C° 0 mm 1 m/s 749 mmHg 71%
20:00 -1°C° 0 mm 1 m/s 749 mmHg 72%
21:00 -1°C° 0 mm 1 m/s 749 mmHg 72%
22:00 -1°C° 0 mm 1 m/s 749 mmHg 72%
23:00 -1°C° 0 mm 1 m/s 749 mmHg 72%
Voir plus

Nous avons besoin de votre consentement

Meteoprog et ses fournisseurs de services peuvent stocker et accéder à des données personnelles telles que des cookies, des identifiants d'appareils ou d'autres technologies similaires sur votre appareil et traiter ces données pour personnaliser le contenu et les publicités, ainsi que pour fournir des fonctionnalités de médias sociaux et analyser le trafic.

  • Stocker et/ou accéder à des informations sur votre appareil

    Des cookies, des identifiants d'appareils ou d'autres informations peuvent être stockés ou accessibles sur votre appareil aux fins indiquées ci-dessus.

  • Annonces et contenus personnalisés, mesure des annonces et des contenus, connaissance de l'audience et développement de produits

    Les annonces et le contenu peuvent être personnalisés en fonction d'un profil. D'autres données peuvent être ajoutées pour mieux personnaliser les annonces et le contenu. Les performances des publicités et du contenu peuvent être mesurées. Il est possible d'obtenir des informations sur le public qui a vu les publicités et le contenu. Ces données peuvent être utilisées pour développer ou améliorer l'expérience de l'utilisateur, les systèmes et les logiciels.

En cliquant sur "J'accepte", vous autorisez l'utilisation de cookies, des identifiants d'appareils, des balises web ou d'autres technologies similaires. Vos paramètres peuvent être modifiés dans le navigateur de votre appareil.

Dans certains cas, des intérêts légitimes peuvent être invoqués plutôt qu'un consentement. Vous pouvez en savoir plus à ce sujet dans notre Politique de confidentialité et de cookies.